COSMOS 886 DEB, 13507

Orbit data source: Space-Track

COSMOS 886 DEB, 13507 is space debris in LEO originally from a launch on Mon, 27 Dec 1976 UTC launched from the Tyuratam Missile And Space Complex (TTMTR). Debris objects in space refer to the collection of defunct objects orbiting the Earth. Examples of debris include non-operational satellites, rocket bodies, and fragments generated from explosions, collisions, or faulty payload assembly.

Loading next visibility...
Identifier
13507, 1976-126BK
Orbit
LEO
Country
Flag of CISCIS
Related business
Manufacturer
Unknown
Mission
Spacecraft
Bus & Motor
Unknown
Mass
Unknown
Launch date (UTC)
1976-12-27 (49 years ago)
Launch vehicle
Unknown
Launch site
Tyuratam Missile And Space Complex (TTMTR)
Object type
Payload
Rocket body
Debris
Shape & HBR
Unknown shape, 0.1 m
Radar Cross Section
Small (<0.1 m²)

Expand to show TLE details & history
Last TLE update: 19 hours ago

TLE from 19 hours ago
0 COSMOS 886 DEB
1 13507U 76126BK  26129.72284742  .00000016  00000-0  29683-3 0  9992
2 13507  65.7562 238.9643 0883906 275.5298 244.7736 11.92289138956205
Epoch: 2026-05-09T17:20Z
TLE epoch observation values (Epoch: 2026-05-09T17:20:54.017Z)
Latitude
25.75194°
Longitude
-81.28574°
Altitude
2,071.332 km
Speed
6.72 km/s
True Right ascension
03h 05m 54s
True Declination
25° 38' 19"
Sunlit
Object was in daylight at epoch
Visualization orbit readout
Latitude
Unknown
Longitude
Unknown
Altitude
Unknown
Speed
Unknown
Apparent Right ascension
Unknown
Apparent Declination
Unknown
Sunlit
N/A
Visualization observer readout
Local Sidereal Time
20:32:34
Azimuth
Unknown
Elevation
Unknown
Doppler factor
Unknown
Orbital elements
Apogee altitude
2,429.502 km
Perigee altitude
998.926 km
Semi-major axis
8,092.351 km
Eccentricity
0.08839
Inclination
65.7562°
RAAN
238.9643°
Arg. of periapsis
275.5298°
True anomaly
236.05705°
Mean anomaly
244.7736°
Eccentric anomaly
240.37137°
Mean motion
2.98147 °/min
Orbital period
120.75 mins
BSTAR
0.00029683
Loading maneuver chart data...
Computing Atmospheric mass density...
Loading historical data...
Loading historical data...
Loading historical data...
Loading historical data...
Loading historical data...
Loading historical data...
Loading historical data...

Documentation

Showing up to 5 results
|